Year,Month,Day,Hour,Minute,Value (Times are PST for barometer in hPa)
2011,11,24,00,00,1006.10
2011,11,24,00,01,1006.07
2011,11,24,00,02,1006.13
2011,11,24,00,03,1006.06
2011,11,24,00,04,1006.03
2011,11,24,00,05,1006.03
2011,11,24,00,06,1005.99
2011,11,24,00,07,1006.03
2011,11,24,00,08,1006.07
2011,11,24,00,09,1006.13
2011,11,24,00,10,1006.13
2011,11,24,00,11,1006.13
2011,11,24,00,12,1006.13
2011,11,24,00,13,1006.16
2011,11,24,00,14,1006.16
2011,11,24,00,15,1006.16
2011,11,24,00,16,1006.16
2011,11,24,00,17,1006.16
2011,11,24,00,18,1006.16
2011,11,24,00,19,1006.13
2011,11,24,00,20,1006.16
2011,11,24,00,21,1006.20
2011,11,24,00,22,1006.20
2011,11,24,00,23,1006.15
2011,11,24,00,24,1006.11
2011,11,24,00,25,1006.16
2011,11,24,00,26,1006.13
2011,11,24,00,27,1006.10
2011,11,24,00,28,1006.13
2011,11,24,00,29,1006.13
2011,11,24,00,30,1006.10
2011,11,24,00,31,1006.10
2011,11,24,00,32,1006.06
2011,11,24,00,33,1006.06
2011,11,24,00,34,1006.10
2011,11,24,00,35,1006.10
2011,11,24,00,36,1006.13
2011,11,24,00,37,1006.13
2011,11,24,00,38,1006.10
2011,11,24,00,39,1006.10
2011,11,24,00,40,1006.06
2011,11,24,00,41,1006.06
2011,11,24,00,42,1006.06
2011,11,24,00,43,1006.06
2011,11,24,00,44,1006.06
2011,11,24,00,45,1006.06
2011,11,24,00,46,1006.04
2011,11,24,00,47,1006.10
2011,11,24,00,48,1006.10
2011,11,24,00,49,1006.10
2011,11,24,00,50,1006.10
2011,11,24,00,51,1006.06
2011,11,24,00,52,1006.03
2011,11,24,00,53,1006.03
2011,11,24,00,54,1006.03
2011,11,24,00,55,1006.03
2011,11,24,00,56,1006.06
2011,11,24,00,57,1006.03
2011,11,24,00,58,1006.03
2011,11,24,00,59,1006.03
2011,11,24,01,00,1005.99
2011,11,24,01,01,1005.99
2011,11,24,01,02,1005.96
2011,11,24,01,03,1005.89
2011,11,24,01,04,1005.93
2011,11,24,01,05,1005.93
2011,11,24,01,06,1005.93
2011,11,24,01,07,1005.89
2011,11,24,01,08,1005.86
2011,11,24,01,09,1005.89
2011,11,24,01,10,1005.89
2011,11,24,01,11,1005.86
2011,11,24,01,12,1005.86
2011,11,24,01,13,1005.89
2011,11,24,01,14,1005.86
2011,11,24,01,15,1005.79
2011,11,24,01,16,1005.76
2011,11,24,01,17,1005.79
2011,11,24,01,18,1005.72
2011,11,24,01,19,1005.66
2011,11,24,01,20,1005.69
2011,11,24,01,21,1005.69
2011,11,24,01,22,1005.69
2011,11,24,01,23,1005.66
2011,11,24,01,24,1005.66
2011,11,24,01,25,1005.62
2011,11,24,01,26,1005.66
2011,11,24,01,27,1005.62
2011,11,24,01,28,1005.62
2011,11,24,01,29,1005.62
2011,11,24,01,30,1005.59
2011,11,24,01,31,1005.62
2011,11,24,01,32,1005.66
2011,11,24,01,33,1005.66
2011,11,24,01,34,1005.59
2011,11,24,01,35,1005.55
2011,11,24,01,36,1005.55
2011,11,24,01,37,1005.52
2011,11,24,01,38,1005.45
2011,11,24,01,39,1005.45
2011,11,24,01,40,1005.45
2011,11,24,01,41,1005.45
2011,11,24,01,42,1005.45
2011,11,24,01,43,1005.42
2011,11,24,01,44,1005.45
2011,11,24,01,45,1005.42
2011,11,24,01,46,1005.42
2011,11,24,01,47,1005.39
2011,11,24,01,48,1005.34
2011,11,24,01,49,1005.28
2011,11,24,01,50,1005.28
2011,11,24,01,51,1005.28
2011,11,24,01,52,1005.28
2011,11,24,01,53,1005.35
2011,11,24,01,54,1005.32
2011,11,24,01,55,1005.32
2011,11,24,01,56,1005.32
2011,11,24,01,57,1005.32
2011,11,24,01,58,1005.32
2011,11,24,01,59,1005.28
2011,11,24,02,00,1005.18
2011,11,24,02,01,1005.15
2011,11,24,02,02,1005.15
2011,11,24,02,03,1005.15
2011,11,24,02,04,1005.11
2011,11,24,02,05,1005.11
2011,11,24,02,06,1005.11
2011,11,24,02,07,1005.11
2011,11,24,02,08,1005.11
2011,11,24,02,09,1005.08
2011,11,24,02,10,1005.08
2011,11,24,02,11,1005.08
2011,11,24,02,12,1005.08
2011,11,24,02,13,1005.01
2011,11,24,02,14,1004.98
2011,11,24,02,15,1004.95
2011,11,24,02,16,1004.95
2011,11,24,02,17,1004.98
2011,11,24,02,18,1004.98
2011,11,24,02,19,1005.01
2011,11,24,02,20,1004.98
2011,11,24,02,21,1004.95
2011,11,24,02,22,1004.95
2011,11,24,02,23,1004.95
2011,11,24,02,24,1004.95
2011,11,24,02,25,1004.95
2011,11,24,02,26,1004.88
2011,11,24,02,27,1004.88
2011,11,24,02,28,1004.84
2011,11,24,02,29,1004.88
2011,11,24,02,30,1004.88
2011,11,24,02,31,1004.88
2011,11,24,02,32,1004.84
2011,11,24,02,33,1004.84
2011,11,24,02,34,1004.88
2011,11,24,02,35,1004.91
2011,11,24,02,36,1004.91
2011,11,24,02,37,1004.91
2011,11,24,02,38,1004.91
2011,11,24,02,39,1004.91
2011,11,24,02,40,1004.88
2011,11,24,02,41,1004.88
2011,11,24,02,42,1004.88
2011,11,24,02,43,1004.84
2011,11,24,02,44,1004.91
2011,11,24,02,45,1004.88
2011,11,24,02,46,1004.88
2011,11,24,02,47,1004.88
2011,11,24,02,48,1004.88
2011,11,24,02,49,1004.95
2011,11,24,02,50,1004.95
2011,11,24,02,51,1004.91
2011,11,24,02,52,1004.91
2011,11,24,02,53,1004.88
2011,11,24,02,54,1004.88
2011,11,24,02,55,1004.88
2011,11,24,02,56,1004.88
2011,11,24,02,57,1004.88
2011,11,24,02,58,1004.91
2011,11,24,02,59,1004.91
2011,11,24,03,00,1004.95
2011,11,24,03,01,1004.95
2011,11,24,03,02,1004.95
2011,11,24,03,03,1004.95
2011,11,24,03,04,1005.01
2011,11,24,03,05,1004.98
2011,11,24,03,06,1005.01
2011,11,24,03,07,1005.01
2011,11,24,03,08,1004.98
2011,11,24,03,09,1004.95
2011,11,24,03,10,1004.91
2011,11,24,03,11,1004.88
2011,11,24,03,12,1004.88
2011,11,24,03,13,1004.84
2011,11,24,03,14,1004.84
2011,11,24,03,15,1004.84
2011,11,24,03,16,1004.84
2011,11,24,03,17,1004.81
2011,11,24,03,18,1004.81
2011,11,24,03,19,1004.81
2011,11,24,03,20,1004.78
2011,11,24,03,21,1004.78
2011,11,24,03,22,1004.74
2011,11,24,03,23,1004.74
2011,11,24,03,24,1004.73
2011,11,24,03,25,1004.67
2011,11,24,03,26,1004.64
2011,11,24,03,27,1004.61
2011,11,24,03,28,1004.61
2011,11,24,03,29,1004.61
2011,11,24,03,30,1004.61
2011,11,24,03,31,1004.57
2011,11,24,03,32,1004.50
2011,11,24,03,33,1004.50
2011,11,24,03,34,1004.50
2011,11,24,03,35,1004.54
2011,11,24,03,36,1004.50
2011,11,24,03,37,1004.54
2011,11,24,03,38,1004.54
2011,11,24,03,39,1004.53
2011,11,24,03,40,1004.47
2011,11,24,03,41,1004.50
2011,11,24,03,42,1004.47
2011,11,24,03,43,1004.47
2011,11,24,03,44,1004.44
2011,11,24,03,45,1004.44
2011,11,24,03,46,1004.44
2011,11,24,03,47,1004.44
2011,11,24,03,48,1004.44
2011,11,24,03,49,1004.44
2011,11,24,03,50,1004.46
2011,11,24,03,51,1004.37
2011,11,24,03,52,1004.34
2011,11,24,03,53,1004.30
2011,11,24,03,54,1004.23
2011,11,24,03,55,1004.23
2011,11,24,03,56,1004.20
2011,11,24,03,57,1004.23
2011,11,24,03,58,1004.20
2011,11,24,03,59,1004.20
2011,11,24,04,00,1004.17
2011,11,24,04,01,1004.20
2011,11,24,04,02,1004.17
2011,11,24,04,03,1004.17
2011,11,24,04,04,1004.17
2011,11,24,04,05,1004.17
2011,11,24,04,06,1004.13
2011,11,24,04,07,1004.13
2011,11,24,04,08,1004.13
2011,11,24,04,09,1004.10
2011,11,24,04,10,1004.10
2011,11,24,04,11,1004.06
2011,11,24,04,12,1004.10
2011,11,24,04,13,1004.10
2011,11,24,04,14,1004.07
2011,11,24,04,15,1004.12
2011,11,24,04,16,1004.06
2011,11,24,04,17,1004.03
2011,11,24,04,18,1004.00
2011,11,24,04,19,1003.96
2011,11,24,04,20,1003.93
2011,11,24,04,21,1003.93
2011,11,24,04,22,1003.93
2011,11,24,04,23,1003.93
2011,11,24,04,24,1003.93
2011,11,24,04,25,1003.90
2011,11,24,04,26,1003.90
2011,11,24,04,27,1003.86
2011,11,24,04,28,1003.79
2011,11,24,04,29,1003.75
2011,11,24,04,30,1003.69
2011,11,24,04,31,1003.73
2011,11,24,04,32,1003.69
2011,11,24,04,33,1003.69
2011,11,24,04,34,1003.73
2011,11,24,04,35,1003.69
2011,11,24,04,36,1003.62
2011,11,24,04,37,1003.62
2011,11,24,04,38,1003.59
2011,11,24,04,39,1003.56
2011,11,24,04,40,1003.52
2011,11,24,04,41,1003.52
2011,11,24,04,42,1003.49
2011,11,24,04,43,1003.48
2011,11,24,04,44,1003.42
2011,11,24,04,45,1003.39
2011,11,24,04,46,1003.35
2011,11,24,04,47,1003.32
2011,11,24,04,48,1003.29
2011,11,24,04,49,1003.28
2011,11,24,04,50,1003.22
2011,11,24,04,51,1003.22
2011,11,24,04,52,1003.18
2011,11,24,04,53,1003.18
2011,11,24,04,54,1003.22
2011,11,24,04,55,1003.22
2011,11,24,04,56,1003.18
2011,11,24,04,57,1003.18
2011,11,24,04,58,1003.18
2011,11,24,04,59,1003.18
2011,11,24,05,00,1003.18
2011,11,24,05,01,1003.18
2011,11,24,05,02,1003.15
2011,11,24,05,03,1003.18
2011,11,24,05,04,1003.18
2011,11,24,05,05,1003.12
2011,11,24,05,06,1003.05
2011,11,24,05,07,1003.04
2011,11,24,05,08,1002.97
2011,11,24,05,09,1002.91
2011,11,24,05,10,1002.88
2011,11,24,05,11,1002.85
2011,11,24,05,12,1002.88
2011,11,24,05,13,1002.91
2011,11,24,05,14,1002.88
2011,11,24,05,15,1002.85
2011,11,24,05,16,1002.88
2011,11,24,05,17,1002.88
2011,11,24,05,18,1002.81
2011,11,24,05,19,1002.77
2011,11,24,05,20,1002.67
2011,11,24,05,21,1002.57
2011,11,24,05,22,1002.54
2011,11,24,05,23,1002.58
2011,11,24,05,24,1002.64
2011,11,24,05,25,1002.64
2011,11,24,05,26,1002.68
2011,11,24,05,27,1002.64
2011,11,24,05,28,1002.61
2011,11,24,05,29,1002.61
2011,11,24,05,30,1002.57
2011,11,24,05,31,1002.46
2011,11,24,05,32,1002.40
2011,11,24,05,33,1002.29
2011,11,24,05,34,1002.19
2011,11,24,05,35,1002.07
2011,11,24,05,36,1002.11
2011,11,24,05,37,1002.18
2011,11,24,05,38,1002.23
2011,11,24,05,39,1002.17
2011,11,24,05,40,1002.20
2011,11,24,05,41,1002.20
2011,11,24,05,42,1002.20
2011,11,24,05,43,1002.20
2011,11,24,05,44,1002.20
2011,11,24,05,45,1002.17
2011,11,24,05,46,1002.23
2011,11,24,05,47,1002.17
2011,11,24,05,48,1002.11
2011,11,24,05,49,1002.16
2011,11,24,05,50,1002.07
2011,11,24,05,51,1002.10
2011,11,24,05,52,1002.13
2011,11,24,05,53,1002.18
2011,11,24,05,54,1002.24
2011,11,24,05,55,1002.24
2011,11,24,05,56,1002.20
2011,11,24,05,57,1002.23
2011,11,24,05,58,1002.17
2011,11,24,05,59,1002.17
2011,11,24,06,00,1002.17
2011,11,24,06,01,1002.13
2011,11,24,06,02,1002.13
2011,11,24,06,03,1002.07
2011,11,24,06,04,1002.07
2011,11,24,06,05,1002.07
2011,11,24,06,06,1002.00
2011,11,24,06,07,1001.97
2011,11,24,06,08,1001.93
2011,11,24,06,09,1001.90
2011,11,24,06,10,1001.93
2011,11,24,06,11,1001.90
2011,11,24,06,12,1001.86
2011,11,24,06,13,1001.86
2011,11,24,06,14,1001.83
2011,11,24,06,15,1001.83
2011,11,24,06,16,1001.83
2011,11,24,06,17,1001.86
2011,11,24,06,18,1001.86
2011,11,24,06,19,1001.93
2011,11,24,06,20,1001.92
2011,11,24,06,21,1001.86
2011,11,24,06,22,1001.86
2011,11,24,06,23,1001.86
2011,11,24,06,24,1001.85
2011,11,24,06,25,1001.80
2011,11,24,06,26,1001.83
2011,11,24,06,27,1001.86
2011,11,24,06,28,1001.86
2011,11,24,06,29,1001.86
2011,11,24,06,30,1001.80
2011,11,24,06,31,1001.76
2011,11,24,06,32,1001.73
2011,11,24,06,33,1001.66
2011,11,24,06,34,1001.66
2011,11,24,06,35,1001.63
2011,11,24,06,36,1001.63
2011,11,24,06,37,1001.63
2011,11,24,06,38,1001.59
2011,11,24,06,39,1001.52
2011,11,24,06,40,1001.49
2011,11,24,06,41,1001.42
2011,11,24,06,42,1001.41
2011,11,24,06,43,1001.32
2011,11,24,06,44,1001.29
2011,11,24,06,45,1001.25
2011,11,24,06,46,1001.25
2011,11,24,06,47,1001.22
2011,11,24,06,48,1001.22
2011,11,24,06,49,1001.12
2011,11,24,06,50,1001.08
2011,11,24,06,51,1001.05
2011,11,24,06,52,1001.05
2011,11,24,06,53,1000.97
2011,11,24,06,54,1000.92
2011,11,24,06,55,1000.84
2011,11,24,06,56,1000.77
2011,11,24,06,57,1000.68
2011,11,24,06,58,1000.64
2011,11,24,06,59,1000.67
2011,11,24,07,00,1000.58
2011,11,24,07,01,1000.54
2011,11,24,07,02,1000.58
2011,11,24,07,03,1000.53
2011,11,24,07,04,1000.44
2011,11,24,07,05,1000.48
2011,11,24,07,06,1000.48
2011,11,24,07,07,1000.41
2011,11,24,07,08,1000.44
2011,11,24,07,09,1000.48
2011,11,24,07,10,1000.48
2011,11,24,07,11,1000.44
2011,11,24,07,12,1000.41
2011,11,24,07,13,1000.44
2011,11,24,07,14,1000.37
2011,11,24,07,15,1000.34
2011,11,24,07,16,1000.27
2011,11,24,07,17,1000.24
2011,11,24,07,18,1000.20
2011,11,24,07,19,1000.17
2011,11,24,07,20,1000.17
2011,11,24,07,21,1000.10
2011,11,24,07,22,1000.09
2011,11,24,07,23,999.97
2011,11,24,07,24,1000.00
2011,11,24,07,25,999.93
2011,11,24,07,26,999.90
2011,11,24,07,27,999.87
2011,11,24,07,28,999.86
2011,11,24,07,29,999.76
2011,11,24,07,30,999.80
2011,11,24,07,31,999.80
2011,11,24,07,32,999.73
2011,11,24,07,33,999.70
2011,11,24,07,34,999.70
2011,11,24,07,35,999.66
2011,11,24,07,36,999.63
2011,11,24,07,37,999.66
2011,11,24,07,38,999.66
2011,11,24,07,39,999.71
2011,11,24,07,40,999.81
2011,11,24,07,41,999.87
2011,11,24,07,42,999.83
2011,11,24,07,43,999.77
2011,11,24,07,44,999.90
2011,11,24,07,45,999.93
2011,11,24,07,46,999.93
2011,11,24,07,47,999.93
2011,11,24,07,48,999.93
2011,11,24,07,49,999.93
2011,11,24,07,50,1000.00
2011,11,24,07,51,999.97
2011,11,24,07,52,999.97
2011,11,24,07,53,999.97
2011,11,24,07,54,999.96
2011,11,24,07,55,999.90
2011,11,24,07,56,999.90
2011,11,24,07,57,999.87
2011,11,24,07,58,999.90
2011,11,24,07,59,999.87
2011,11,24,08,00,999.80
2011,11,24,08,01,999.83
2011,11,24,08,02,999.83
2011,11,24,08,03,999.87
2011,11,24,08,04,999.87
2011,11,24,08,05,999.90
2011,11,24,08,06,999.87
2011,11,24,08,07,999.87
2011,11,24,08,08,999.87
2011,11,24,08,09,999.90
2011,11,24,08,10,999.87
2011,11,24,08,11,999.83
2011,11,24,08,12,999.79
2011,11,24,08,13,999.73
2011,11,24,08,14,999.76
2011,11,24,08,15,999.70
2011,11,24,08,16,999.73
2011,11,24,08,17,999.73
2011,11,24,08,18,999.70
2011,11,24,08,19,999.70
2011,11,24,08,20,999.73
2011,11,24,08,21,999.73
2011,11,24,08,22,999.70
2011,11,24,08,23,999.72
2011,11,24,08,24,999.63
2011,11,24,08,25,999.59
2011,11,24,08,26,999.66
2011,11,24,08,27,999.63
2011,11,24,08,28,999.56
2011,11,24,08,29,999.49
2011,11,24,08,30,999.48
2011,11,24,08,31,999.39
2011,11,24,08,32,999.32
2011,11,24,08,33,999.25
2011,11,24,08,34,999.15
2011,11,24,08,35,999.11
2011,11,24,08,36,999.04
2011,11,24,08,37,998.95
2011,11,24,08,38,998.91
2011,11,24,08,39,998.81
2011,11,24,08,40,998.68
2011,11,24,08,41,998.71
2011,11,24,08,42,998.61
2011,11,24,08,43,998.58
2011,11,24,08,44,998.61
2011,11,24,08,45,998.61
2011,11,24,08,46,998.58
2011,11,24,08,47,998.61
2011,11,24,08,48,998.65
2011,11,24,08,49,998.65
2011,11,24,08,50,998.67
2011,11,24,08,51,998.54
2011,11,24,08,52,998.54
2011,11,24,08,53,998.48
2011,11,24,08,54,998.48
2011,11,24,08,55,998.48
2011,11,24,08,56,998.44
2011,11,24,08,57,998.38
2011,11,24,08,58,998.38
2011,11,24,08,59,998.39
2011,11,24,09,00,998.48
2011,11,24,09,01,998.51
2011,11,24,09,02,998.58
2011,11,24,09,03,998.61
2011,11,24,09,04,998.54
2011,11,24,09,05,998.48
2011,11,24,09,06,998.52
2011,11,24,09,07,998.61
2011,11,24,09,08,998.64
2011,11,24,09,09,998.51
2011,11,24,09,10,998.58
2011,11,24,09,11,998.48
2011,11,24,09,12,998.44
2011,11,24,09,13,998.37
2011,11,24,09,14,998.23
2011,11,24,09,15,998.09
2011,11,24,09,16,997.99
2011,11,24,09,17,997.90
2011,11,24,09,18,997.87
2011,11,24,09,19,997.90
2011,11,24,09,20,997.94
2011,11,24,09,21,997.97
2011,11,24,09,22,997.87
2011,11,24,09,23,997.83
2011,11,24,09,24,997.79
2011,11,24,09,25,997.66
2011,11,24,09,26,997.66
2011,11,24,09,27,997.66
2011,11,24,09,28,997.60
2011,11,24,09,29,997.53
2011,11,24,09,30,997.53
2011,11,24,09,31,997.53
2011,11,24,09,32,997.50
2011,11,24,09,33,997.50
2011,11,24,09,34,997.43
2011,11,24,09,35,997.43
2011,11,24,09,36,997.53
2011,11,24,09,37,997.53
2011,11,24,09,38,997.53
2011,11,24,09,39,997.53
2011,11,24,09,40,997.50
2011,11,24,09,41,997.43
2011,11,24,09,42,997.52
2011,11,24,09,43,997.39
2011,11,24,09,44,997.39
2011,11,24,09,45,997.35
2011,11,24,09,46,997.26
2011,11,24,09,47,997.16
2011,11,24,09,48,997.22
2011,11,24,09,49,997.19
2011,11,24,09,50,997.16
2011,11,24,09,51,997.16
2011,11,24,09,52,997.09
2011,11,24,09,53,997.09
2011,11,24,09,54,997.09
2011,11,24,09,55,997.12
2011,11,24,09,56,997.12
2011,11,24,09,57,997.16
2011,11,24,09,58,997.12
2011,11,24,09,59,997.19
2011,11,24,10,00,997.16
2011,11,24,10,01,997.12
2011,11,24,10,02,997.12
2011,11,24,10,03,997.05
2011,11,24,10,04,997.02
2011,11,24,10,05,996.95
2011,11,24,10,06,996.92
2011,11,24,10,07,996.91
2011,11,24,10,08,996.82
2011,11,24,10,09,996.82
2011,11,24,10,10,996.71
2011,11,24,10,11,996.61
2011,11,24,10,12,996.61
2011,11,24,10,13,996.55
2011,11,24,10,14,996.55
2011,11,24,10,15,996.55
2011,11,24,10,16,996.47
2011,11,24,10,17,996.38
2011,11,24,10,18,996.44
2011,11,24,10,19,996.34
2011,11,24,10,20,996.31
2011,11,24,10,21,996.24
2011,11,24,10,22,996.17
2011,11,24,10,23,996.21
2011,11,24,10,24,996.21
2011,11,24,10,25,996.17
2011,11,24,10,26,996.16
2011,11,24,10,27,996.01
2011,11,24,10,28,996.01
2011,11,24,10,29,996.01
2011,11,24,10,30,995.94
2011,11,24,10,31,996.01
2011,11,24,10,32,996.01
2011,11,24,10,33,995.97
2011,11,24,10,34,995.97
2011,11,24,10,35,995.87
2011,11,24,10,36,995.87
2011,11,24,10,37,995.84
2011,11,24,10,38,995.90
2011,11,24,10,39,995.87
2011,11,24,10,40,995.87
2011,11,24,10,41,995.84
2011,11,24,10,42,995.77
2011,11,24,10,43,995.73
2011,11,24,10,44,995.70
2011,11,24,10,45,995.63
2011,11,24,10,46,995.56
2011,11,24,10,47,995.53
2011,11,24,10,48,995.40
2011,11,24,10,49,995.40
2011,11,24,10,50,995.36
2011,11,24,10,51,995.26
2011,11,24,10,52,995.29
2011,11,24,10,53,995.23
2011,11,24,10,54,995.16
2011,11,24,10,55,995.19
2011,11,24,10,56,995.12
2011,11,24,10,57,995.16
2011,11,24,10,58,995.12
2011,11,24,10,59,995.09
2011,11,24,11,00,995.12
2011,11,24,11,01,995.19
2011,11,24,11,02,995.09
2011,11,24,11,03,995.19
2011,11,24,11,04,995.09
2011,11,24,11,05,995.02
2011,11,24,11,06,995.06
2011,11,24,11,07,994.93
2011,11,24,11,08,994.65
2011,11,24,11,09,994.65
2011,11,24,11,10,994.38
2011,11,24,11,11,994.38
2011,11,24,11,12,994.35
2011,11,24,11,13,994.35
2011,11,24,11,14,994.21
2011,11,24,11,15,994.18
2011,11,24,11,16,994.14
2011,11,24,11,17,994.11
2011,11,24,11,18,994.07
2011,11,24,11,19,994.07
2011,11,24,11,20,993.95
2011,11,24,11,21,993.94
2011,11,24,11,22,993.91
2011,11,24,11,23,993.87
2011,11,24,11,24,993.94
2011,11,24,11,25,993.97
2011,11,24,11,26,993.87
2011,11,24,11,27,993.91
2011,11,24,11,28,993.91
2011,11,24,11,29,993.77
2011,11,24,11,30,993.74
2011,11,24,11,31,993.74
2011,11,24,11,32,993.67
2011,11,24,11,33,993.63
2011,11,24,11,34,993.53
2011,11,24,11,35,993.50
2011,11,24,11,36,993.36
2011,11,24,11,37,993.30
2011,11,24,11,38,993.23
2011,11,24,11,39,993.19
2011,11,24,11,40,993.19
2011,11,24,11,41,993.16
2011,11,24,11,42,992.99
2011,11,24,11,43,993.03
2011,11,24,11,44,992.99
2011,11,24,11,45,992.86
2011,11,24,11,46,992.82
2011,11,24,11,47,992.69
2011,11,24,11,48,992.75
2011,11,24,11,49,992.62
2011,11,24,11,50,992.65
2011,11,24,11,51,992.55
2011,11,24,11,52,992.52
2011,11,24,11,53,992.42
2011,11,24,11,54,992.31
2011,11,24,11,55,992.31
2011,11,24,11,56,992.25
2011,11,24,11,57,992.25
2011,11,24,11,58,992.25
2011,11,24,11,59,992.21
2011,11,24,12,00,992.18
2011,11,24,12,01,992.18
2011,11,24,12,02,992.14
2011,11,24,12,03,992.11
2011,11,24,12,04,992.18
2011,11,24,12,05,992.21
2011,11,24,12,06,992.21
2011,11,24,12,07,992.18
2011,11,24,12,08,992.28
2011,11,24,12,09,992.14
2011,11,24,12,10,992.04
2011,11,24,12,11,992.04
2011,11,24,12,12,992.04
2011,11,24,12,13,992.01
2011,11,24,12,14,991.98
2011,11,24,12,15,991.91
2011,11,24,12,16,991.84
2011,11,24,12,17,991.77
2011,11,24,12,18,991.64
2011,11,24,12,19,991.43
2011,11,24,12,20,991.37
2011,11,24,12,21,991.40
2011,11,24,12,22,991.40
2011,11,24,12,23,991.37
2011,11,24,12,24,991.50
2011,11,24,12,25,991.47
2011,11,24,12,26,991.50
2011,11,24,12,27,991.59
2011,11,24,12,28,991.70
2011,11,24,12,29,991.74
2011,11,24,12,30,991.84
2011,11,24,12,31,991.91
2011,11,24,12,32,991.87
2011,11,24,12,33,991.87
2011,11,24,12,34,991.77
2011,11,24,12,35,991.70
2011,11,24,12,36,991.74
2011,11,24,12,37,991.84
2011,11,24,12,38,991.84
2011,11,24,12,39,991.97
2011,11,24,12,40,991.94
2011,11,24,12,41,991.94
2011,11,24,12,42,991.94
2011,11,24,12,43,991.91
2011,11,24,12,44,991.87
2011,11,24,12,45,991.84
2011,11,24,12,46,991.91
2011,11,24,12,47,991.87
2011,11,24,12,48,991.94
2011,11,24,12,49,991.87
2011,11,24,12,50,991.84
2011,11,24,12,51,991.81
2011,11,24,12,52,991.77
2011,11,24,12,53,991.77
2011,11,24,12,54,991.77
2011,11,24,12,55,991.81
2011,11,24,12,56,991.91
2011,11,24,12,57,991.94
2011,11,24,12,58,991.98
2011,11,24,12,59,992.01
2011,11,24,13,00,992.08
2011,11,24,13,01,992.08
2011,11,24,13,02,992.11
2011,11,24,13,03,992.21
2011,11,24,13,04,992.21
2011,11,24,13,05,992.25
2011,11,24,13,06,992.28
2011,11,24,13,07,992.28
2011,11,24,13,08,992.25
2011,11,24,13,09,992.18
2011,11,24,13,10,992.21
2011,11,24,13,11,992.25
2011,11,24,13,12,992.25
2011,11,24,13,13,992.15
2011,11,24,13,14,992.18
2011,11,24,13,15,992.25
2011,11,24,13,16,992.31
2011,11,24,13,17,992.35
2011,11,24,13,18,992.31
2011,11,24,13,19,992.28
2011,11,24,13,20,992.21
2011,11,24,13,21,992.14
2011,11,24,13,22,992.14
2011,11,24,13,23,992.14
2011,11,24,13,24,992.11
2011,11,24,13,25,992.11
2011,11,24,13,26,992.11
2011,11,24,13,27,992.04
2011,11,24,13,28,992.04
2011,11,24,13,29,991.98
2011,11,24,13,30,991.98
2011,11,24,13,31,991.85
2011,11,24,13,32,991.74
2011,11,24,13,33,991.57
2011,11,24,13,34,991.53
2011,11,24,13,35,991.43
2011,11,24,13,36,991.40
2011,11,24,13,37,991.33
2011,11,24,13,38,991.40
2011,11,24,13,39,991.33
2011,11,24,13,40,991.33
2011,11,24,13,41,991.30
2011,11,24,13,42,991.37
2011,11,24,13,43,991.40
2011,11,24,13,44,991.47
2011,11,24,13,45,991.53
2011,11,24,13,46,991.50
2011,11,24,13,47,991.43
2011,11,24,13,48,991.40
2011,11,24,13,49,991.40
2011,11,24,13,50,991.47
2011,11,24,13,51,991.50
2011,11,24,13,52,991.53
2011,11,24,13,53,991.50
2011,11,24,13,54,991.47
2011,11,24,13,55,991.43
2011,11,24,13,56,991.47
2011,11,24,13,57,991.43
2011,11,24,13,58,991.43
2011,11,24,13,59,991.33
2011,11,24,14,00,991.33
2011,11,24,14,01,991.23
2011,11,24,14,02,991.13
2011,11,24,14,03,991.09
2011,11,24,14,04,991.03
2011,11,24,14,05,990.99
2011,11,24,14,06,991.03
2011,11,24,14,07,991.09
2011,11,24,14,08,991.09
2011,11,24,14,09,990.99
2011,11,24,14,10,990.93
2011,11,24,14,11,990.86
2011,11,24,14,12,990.89
2011,11,24,14,13,991.03
2011,11,24,14,14,991.06
2011,11,24,14,15,991.06
2011,11,24,14,16,991.06
2011,11,24,14,17,991.06
2011,11,24,14,18,991.06
2011,11,24,14,19,990.96
2011,11,24,14,20,990.96
2011,11,24,14,21,990.79
2011,11,24,14,22,990.86
2011,11,24,14,23,990.93
2011,11,24,14,24,991.05
2011,11,24,14,25,991.13
2011,11,24,14,26,991.13
2011,11,24,14,27,991.13
2011,11,24,14,28,991.26
2011,11,24,14,29,991.37
2011,11,24,14,30,991.50
2011,11,24,14,31,991.53
2011,11,24,14,32,991.53
2011,11,24,14,33,991.43
2011,11,24,14,34,991.40
2011,11,24,14,35,991.33
2011,11,24,14,36,991.26
2011,11,24,14,37,991.30
2011,11,24,14,38,991.26
2011,11,24,14,39,991.23
2011,11,24,14,40,991.26
2011,11,24,14,41,991.23
2011,11,24,14,42,991.33
2011,11,24,14,43,991.30
2011,11,24,14,44,991.23
2011,11,24,14,45,991.20
2011,11,24,14,46,991.16
2011,11,24,14,47,991.13
2011,11,24,14,48,991.06
2011,11,24,14,49,991.13
2011,11,24,14,50,991.09
2011,11,24,14,51,991.13
2011,11,24,14,52,991.23
2011,11,24,14,53,991.23
2011,11,24,14,54,991.30
2011,11,24,14,55,991.30
2011,11,24,14,56,991.23
2011,11,24,14,57,991.20
2011,11,24,14,58,991.13
2011,11,24,14,59,991.16
2011,11,24,15,00,991.07
2011,11,24,15,01,990.99
2011,11,24,15,02,991.03
2011,11,24,15,03,990.90
2011,11,24,15,04,990.89
2011,11,24,15,05,990.86
2011,11,24,15,06,990.96
2011,11,24,15,07,991.03
2011,11,24,15,08,991.03
2011,11,24,15,09,991.06
2011,11,24,15,10,991.09
2011,11,24,15,11,991.13
2011,11,24,15,12,990.96
2011,11,24,15,13,990.83
2011,11,24,15,14,990.76
2011,11,24,15,15,990.79
2011,11,24,15,16,990.82
2011,11,24,15,17,990.79
2011,11,24,15,18,990.76
2011,11,24,15,19,990.85
2011,11,24,15,20,990.82
2011,11,24,15,21,990.76
2011,11,24,15,22,990.92
2011,11,24,15,23,991.06
2011,11,24,15,24,990.93
2011,11,24,15,25,990.93
2011,11,24,15,26,990.93
2011,11,24,15,27,990.93
2011,11,24,15,28,990.86
2011,11,24,15,29,990.79
2011,11,24,15,30,990.72
2011,11,24,15,31,990.69
2011,11,24,15,32,990.69
2011,11,24,15,33,990.62
2011,11,24,15,34,990.69
2011,11,24,15,35,990.59
2011,11,24,15,36,990.59
2011,11,24,15,37,990.65
2011,11,24,15,38,990.65
2011,11,24,15,39,990.62
2011,11,24,15,40,990.65
2011,11,24,15,41,990.69
2011,11,24,15,42,990.76
2011,11,24,15,43,990.82
2011,11,24,15,44,990.72
2011,11,24,15,45,990.76
2011,11,24,15,46,990.65
2011,11,24,15,47,990.59
2011,11,24,15,48,990.68
2011,11,24,15,49,990.65
2011,11,24,15,50,990.65
2011,11,24,15,51,990.65
2011,11,24,15,52,990.79
2011,11,24,15,53,990.89
2011,11,24,15,54,990.98
2011,11,24,15,55,991.06
2011,11,24,15,56,991.06
2011,11,24,15,57,991.13
2011,11,24,15,58,991.09
2011,11,24,15,59,991.03
2011,11,24,16,00,990.96
2011,11,24,16,01,991.03
2011,11,24,16,02,991.03
2011,11,24,16,03,991.06
2011,11,24,16,04,991.06
2011,11,24,16,05,991.06
2011,11,24,16,06,991.03
2011,11,24,16,07,991.03
2011,11,24,16,08,991.09
2011,11,24,16,09,991.03
2011,11,24,16,10,991.03
2011,11,24,16,11,991.03
2011,11,24,16,12,991.03
2011,11,24,16,13,991.06
2011,11,24,16,14,991.06
2011,11,24,16,15,991.06
2011,11,24,16,16,991.03
2011,11,24,16,17,991.09